Location: Engelmannsreuth
(49.8125°N, 11.6497°E)
Time: 05:32:25
(UTC+00:00)

NOSS 2-1 (E) - Pass Details

Date: 17 February 2020
Orbit: 450 x 1753 km, 63.3° (Epoch: 27 March)

Event Time Altitude Azimuth Distance (km) Brightness Sun altitude
Exits shadow 05:02:05 24° 275° (W) 1,039 4.1 -13.3°
Maximum altitude 05:03:40 36° 325° (NW) 806 3.8 -13.1°
Drops below altitude 10° 05:07:25 10° 33° (NNE) 1,877 6.4 -12.5°
Sets 05:10:04 0° 42° (NE) 2,946 7.6 -12.1°
